TimeCDT,TemperatureF,Dew PointF,Humidity,Sea Level PressureIn,VisibilityMPH,Wind Direction,Wind SpeedMPH,Gust SpeedMPH,PrecipitationIn,Events,Conditions,WindDirDegrees,DateUTC
12:15 AM,28.9,24.6,84,29.94,2.5,NNW,29.9,38.0,N/A,Snow,Light Snow,340,2013-03-10 06:15:00
12:35 AM,28.0,23.0,81,29.95,2.0,North,28.8,40.3,N/A,Snow,Light Snow,350,2013-03-10 06:35:00
12:55 AM,27.5,21.9,80,29.96,3.0,North,28.8,35.7,N/A,,Haze,350,2013-03-10 06:55:00
1:15 AM,27.5,21.2,77,29.96,5.0,North,24.2,32.2,N/A,,Haze,350,2013-03-10 07:15:00
1:35 AM,26.6,20.3,77,29.97,7.0,North,24.2,33.4,N/A,,Overcast,350,2013-03-10 07:35:00
1:55 AM,25.7,19.4,77,29.98,7.0,North,24.2,33.4,N/A,,Overcast,350,2013-03-10 07:55:00
3:15 AM,25.3,19.4,78,29.98,4.0,NNW,27.6,35.7,N/A,,Haze,340,2013-03-10 08:15:00
3:35 AM,24.8,19.0,79,29.98,4.0,NNW,26.5,35.7,N/A,,Haze,340,2013-03-10 08:35:00
3:55 AM,24.4,18.3,78,29.99,5.0,NNW,26.5,34.5,N/A,,Haze,340,2013-03-10 08:55:00
4:15 AM,23.7,18.0,79,29.99,7.0,NNW,24.2,33.4,N/A,,Scattered Clouds,340,2013-03-10 09:15:00
4:35 AM,23.4,18.1,80,29.99,5.0,NNW,23.0,33.4,N/A,,Haze,340,2013-03-10 09:35:00
4:55 AM,22.8,17.6,80,30.00,7.0,NNW,25.3,34.5,N/A,,Scattered Clouds,340,2013-03-10 09:55:00
5:15 AM,22.1,16.7,80,30.02,7.0,NNW,23.0,33.4,N/A,,Scattered Clouds,340,2013-03-10 10:15:00
5:35 AM,21.4,15.8,79,30.02,10.0,NNW,24.2,31.1,N/A,,Scattered Clouds,340,2013-03-10 10:35:00
5:55 AM,20.8,15.4,80,30.03,10.0,NNW,23.0,32.2,N/A,,Clear,340,2013-03-10 10:55:00
6:15 AM,19.9,13.8,77,30.03,7.0,NNW,23.0,33.4,N/A,,Clear,330,2013-03-10 11:15:00
7:15 AM,18.5,13.1,79,30.05,10.0,NNW,21.9,27.6,N/A,,Clear,340,2013-03-10 12:15:00
7:55 AM,18.9,13.8,81,30.05,7.0,NNW,26.5,31.1,N/A,,Mostly Cloudy,340,2013-03-10 12:55:00
8:15 AM,18.3,13.1,80,30.05,2.5,NNW,28.8,35.7,N/A,Snow,Light Snow,340,2013-03-10 13:15:00
8:35 AM,18.0,12.7,80,30.06,2.5,NNW,28.8,36.8,N/A,Snow,Light Snow,340,2013-03-10 13:35:00
8:55 AM,17.6,12.2,79,30.06,2.0,NNW,27.6,41.4,N/A,Snow,Light Snow,340,2013-03-10 13:55:00
9:15 AM,18.0,12.4,79,30.06,1.8,NNW,23.0,35.7,N/A,Snow,Light Snow,340,2013-03-10 14:15:00
9:35 AM,18.5,12.7,78,30.06,2.0,North,32.2,41.4,N/A,Snow,Light Snow,350,2013-03-10 14:35:00
9:55 AM,18.7,13.1,79,30.07,2.5,NNW,26.5,33.4,N/A,Snow,Light Snow,340,2013-03-10 14:55:00
10:15 AM,18.1,12.2,78,30.09,4.0,NNW,25.3,34.5,N/A,,Haze,340,2013-03-10 15:15:00
10:35 AM,19.6,13.1,76,30.10,7.0,NNW,20.7,26.5,N/A,Snow,Light Snow,340,2013-03-10 15:35:00
10:55 AM,19.2,12.2,74,30.10,7.0,North,26.5,32.2,N/A,,Scattered Clouds,350,2013-03-10 15:55:00
11:15 AM,19.2,12.2,74,30.12,7.0,North,24.2,28.8,N/A,,Mostly Cloudy,350,2013-03-10 16:15:00
11:35 AM,19.6,12.9,75,30.11,5.0,NNW,20.7,31.1,N/A,Snow,Light Snow,340,2013-03-10 16:35:00
11:55 AM,19.6,12.4,74,30.12,7.0,NNW,24.2,31.1,N/A,,Overcast,330,2013-03-10 16:55:00
12:15 PM,20.1,12.4,72,30.13,10.0,NNW,20.7,28.8,N/A,,Mostly Cloudy,330,2013-03-10 17:15:00
12:35 PM,21.2,13.1,71,30.12,10.0,North,24.2,27.6,N/A,,Mostly Cloudy,350,2013-03-10 17:35:00
12:55 PM,21.9,13.1,69,30.11,10.0,NNW,26.5,32.2,N/A,,Scattered Clouds,340,2013-03-10 17:55:00
1:15 PM,22.1,14.0,71,30.12,10.0,North,23.0,28.8,N/A,,Mostly Cloudy,350,2013-03-10 18:15:00
1:35 PM,21.9,13.3,69,30.12,10.0,North,17.3,28.8,N/A,,Mostly Cloudy,350,2013-03-10 18:35:00
1:55 PM,22.5,14.0,70,30.11,10.0,North,17.3,26.5,N/A,,Mostly Cloudy,350,2013-03-10 18:55:00
2:15 PM,22.8,14.0,69,30.09,10.0,NNW,27.6,32.2,N/A,,Overcast,340,2013-03-10 19:15:00
2:35 PM,23.4,14.2,68,30.09,10.0,North,24.2,28.8,N/A,,Mostly Cloudy,350,2013-03-10 19:35:00
2:55 PM,23.0,14.5,70,30.08,10.0,NNW,19.6,25.3,N/A,,Mostly Cloudy,340,2013-03-10 19:55:00
3:15 PM,23.9,14.7,68,30.07,10.0,NNW,21.9,27.6,N/A,,Scattered Clouds,340,2013-03-10 20:15:00
3:35 PM,24.4,15.1,68,30.07,10.0,NNW,20.7,27.6,N/A,,Scattered Clouds,330,2013-03-10 20:35:00
3:55 PM,24.4,15.1,68,30.07,10.0,North,18.4,-,N/A,,Scattered Clouds,350,2013-03-10 20:55:00
4:15 PM,25.3,15.3,66,30.07,10.0,NNW,17.3,25.3,N/A,,Scattered Clouds,340,2013-03-10 21:15:00
4:35 PM,26.4,15.8,64,30.08,10.0,NNW,19.6,24.2,N/A,,Mostly Cloudy,340,2013-03-10 21:35:00
4:55 PM,26.2,16.0,65,30.08,10.0,NNW,12.7,-,N/A,,Scattered Clouds,340,2013-03-10 21:55:00
5:15 PM,26.6,16.3,65,30.08,10.0,NNW,19.6,-,N/A,,Mostly Cloudy,340,2013-03-10 22:15:00
5:35 PM,26.4,15.4,63,30.07,10.0,NNW,20.7,26.5,N/A,,Mostly Cloudy,340,2013-03-10 22:35:00
5:55 PM,26.8,15.1,61,30.07,10.0,NNW,16.1,25.3,N/A,,Scattered Clouds,340,2013-03-10 22:55:00
6:15 PM,27.0,15.4,62,30.06,10.0,North,13.8,-,N/A,,Clear,350,2013-03-10 23:15:00
6:35 PM,26.8,15.8,63,30.05,10.0,North,13.8,-,N/A,,Clear,350,2013-03-10 23:35:00
6:55 PM,26.4,15.8,64,30.05,10.0,NNW,12.7,-,N/A,,Clear,340,2013-03-10 23:55:00
7:15 PM,25.7,15.4,65,30.05,10.0,NNW,9.2,-,N/A,,Clear,330,2013-03-11 00:15:00
7:35 PM,24.1,14.9,68,30.05,10.0,NW,6.9,-,N/A,,Clear,310,2013-03-11 00:35:00
7:55 PM,22.6,14.9,72,30.05,10.0,NW,11.5,-,N/A,,Clear,320,2013-03-11 00:55:00
8:15 PM,21.0,14.4,75,30.05,10.0,NW,10.4,-,N/A,,Clear,320,2013-03-11 01:15:00
8:35 PM,19.4,13.8,79,30.04,10.0,WNW,5.8,-,N/A,,Clear,300,2013-03-11 01:35:00
8:55 PM,18.9,13.5,79,30.05,10.0,NW,5.8,-,N/A,,Clear,320,2013-03-11 01:55:00
9:15 PM,18.0,13.1,81,30.05,10.0,NW,5.8,-,N/A,,Clear,320,2013-03-11 02:15:00
9:35 PM,16.2,12.0,84,30.05,10.0,West,5.8,-,N/A,,Clear,280,2013-03-11 02:35:00
9:55 PM,14.9,10.9,84,30.05,10.0,WNW,3.5,-,N/A,,Clear,300,2013-03-11 02:55:00
10:15 PM,13.6,9.7,84,30.03,10.0,WNW,4.6,-,N/A,,Clear,290,2013-03-11 03:15:00
10:35 PM,14.5,10.6,84,30.03,10.0,WNW,4.6,-,N/A,,Clear,290,2013-03-11 03:35:00
10:55 PM,14.7,11.1,86,30.03,10.0,WNW,4.6,-,N/A,,Clear,300,2013-03-11 03:55:00
11:15 PM,14.9,10.9,84,30.03,10.0,WNW,6.9,-,N/A,,Clear,300,2013-03-11 04:15:00
11:35 PM,14.4,10.4,84,30.03,10.0,WNW,4.6,-,N/A,,Clear,300,2013-03-11 04:35:00
12:15 AM,12.7,8.8,84,30.02,10.0,WNW,4.6,-,N/A,,Clear,290,2013-03-11 05:15:00
12:35 AM,13.1,9.3,85,30.01,10.0,WNW,6.9,-,N/A,,Clear,290,2013-03-11 05:35:00
12:55 AM,13.3,9.0,83,30.00,10.0,WNW,6.9,-,N/A,,Clear,300,2013-03-11 05:55:00